This is the latest recevied weather packets stored in our database for station/object W4KAB. If no packets are shown the sender has not sent any weather packets the latest 10 day(s).
| Time | Temp. | Humidity | Pressure | Rain* | Wind** | Luminosity | Snow |
|---|---|---|---|---|---|---|---|
| 1777131250 | 24.44° C | 64% | 1012.1 hPa | 0 mm | - | 171 W/m² | - |
| 1777130945 | 24.44° C | 63% | 1011.8 hPa | 0 mm | - | 157 W/m² | - |
| 1777130641 | 25° C | 63% | 1012.1 hPa | 0 mm | - | 130 W/m² | - |
| 1777130338 | 24.44° C | 59% | 1012 hPa | 0 mm | - | 197 W/m² | - |
| 1777130035 | 23.89° C | 65% | 1012.1 hPa | 0 mm | - | 304 W/m² | - |
| 1777129730 | 23.33° C | 63% | 1012.1 hPa | 0 mm | - | 313 W/m² | - |
| 1777129430 | 23.33° C | 62% | 1012.1 hPa | 0 mm | - | 126 W/m² | - |
| 1777129124 | 22.78° C | 65% | 1012.1 hPa | 0 mm | - | 141 W/m² | - |
| 1777128819 | 22.22° C | 66% | 1012.2 hPa | 0 mm | - | 97 W/m² | - |
| 1777128518 | 22.22° C | 73% | 1012.1 hPa | 0 mm | - | 59 W/m² | - |
| 1777128214 | 22.22° C | 71% | 1012.2 hPa | 0 mm | - | 87 W/m² | - |
| 1777127912 | 21.67° C | 72% | 1012.2 hPa | 0 mm | - | 78 W/m² | - |
| 1777127609 | 21.67° C | 73% | 1011.8 hPa | 0 mm | - | 59 W/m² | - |
| 1777127306 | 21.11° C | 67% | 1012.1 hPa | 0 mm | - | 51 W/m² | - |
| 1777127001 | 20.56° C | 71% | 1012 hPa | 0 mm | - | 57 W/m² | - |
| 1777126698 | 20° C | 77% | 1011.9 hPa | 0 mm | - | 59 W/m² | - |
| 1777126393 | 20° C | 78% | 1012.1 hPa | 0 mm | - | 47 W/m² | - |
| 1777126090 | 19.44° C | 81% | 1012 hPa | 0 mm | - | 55 W/m² | - |
| 1777125786 | 18.89° C | 82% | 1012.2 hPa | 0 mm | - | 53 W/m² | - |
| 1777125482 | 18.89° C | 81% | 1012.1 hPa | 0 mm | - | 71 W/m² | - |
| 1777125177 | 18.33° C | 82% | 1012.1 hPa | 0 mm | - | 68 W/m² | - |
| 1777124873 | 17.78° C | 83% | 1012.1 hPa | 0 mm | - | 81 W/m² | - |
| 1777124569 | 17.78° C | 83% | 1012.2 hPa | 0 mm | - | 59 W/m² | - |
| 1777124265 | 17.78° C | 83% | 1012.2 hPa | 0 mm | - | 57 W/m² | - |
| 1777123963 | 17.22° C | 83% | 1012.2 hPa | 0 mm | - | 58 W/m² | - |
* Rain latest hour (hover to see other rain measurements)
** Current wind speed in m/s (hover to see current wind gust speed)